#timestamp,LO_Frequency,Hit,StdDev 
1584540015.7,286046998.7,N
1584540035.5,286046999.4,N
1584540055.4,286046996.9,N
1584540075.2,286046999.2,N
1584540095.0,286046998.8,N
1584540095.9,286046998.8,N
1584540115.8,286046999.1,N
1584540135.6,286046997.0,N
1584540155.4,286046997.9,N
1584540175.3,286046995.5,Y
1584540195.1,286046996.9,P
1584540215.9,286047001.2,N
1584540265.8,286047002.2,E
1584540275.7,286047002.3,N
1584540295.5,286047000.3,P
1584540315.4,286046998.8,N
1584540335.2,286046998.6,N
1584540355.1,286046998.9,N
1584540356.0,286046998.9,N
1584540375.8,286046999.5,N
1584540395.6,286046997.6,N
1584540415.5,286046996.3,N
1584540435.3,286046995.7,N
1584540455.2,286046995.1,N
1584540475.9,286046997.3,N
1584540495.7,286046997.4,N
1584540515.6,286046997.5,N
1584540535.4,286046997.2,N
1584540555.2,286046999.3,N
1584540575.1,286047000.5,N
1584540576.0,286047000.5,N
1584540595.8,286046999.8,N
1584540615.7,286047000.6,N
1584540635.5,286046999.9,N
1584540655.3,286047002.2,N
1584540675.2,286047001.5,N
1584540695.0,286047003.6,N
1584540695.9,286047003.6,N
1584540715.8,286047003.9,N
1584540735.6,286047002.8,N
1584540755.4,286047002.4,N
1584540775.3,286047000.3,N
1584540795.1,286047000.5,N
1584540815.9,286046999.9,N
1584540835.7,286047002.2,N
1584540855.5,286047002.2,N
1584540875.4,286047001.9,N
1584540895.2,286047001.9,N
1584540915.0,286047001.6,N
1584540916.0,286047001.6,N
1584540935.8,286047002.2,N
1584540955.6,286047002.5,N
1584540975.5,286047002.8,N
1584540995.3,286047002.1,N
1584541015.1,286047001.8,N
1584541035.9,286047003.6,N
1584541055.7,286047002.0,N
1584541075.6,286047001.6,N
1584541095.4,286047004.0,Y
1584541115.2,286047001.8,P
1584541135.1,286047004.1,P
1584541136.0,286047004.1,P
1584541155.8,286047002.9,N
1584541175.7,286047003.1,N
1584541195.5,286047005.8,Y
1584541215.3,286046999.9,P
1584541235.2,286046998.5,N
1584541255.0,286046998.6,N
1584541255.9,286046998.6,N
1584541275.8,286046999.8,N
1584541295.6,286047001.9,N
1584541315.4,286047003.6,N
1584541335.3,286047001.7,N
1584541355.1,286047001.3,N
1584541375.8,286047001.5,N
1584541395.7,286047004.0,N
1584541415.5,286047002.4,N
1584541435.4,286046998.5,N
1584541455.2,286046999.7,N
1584541475.0,286047001.1,N
1584541475.9,286047001.1,N
1584541495.8,286047000.8,N
1584541515.6,286047000.5,N
1584541535.5,286047002.0,N
1584541555.3,286047001.8,N
1584541575.1,286047002.1,N
1584541595.9,286047001.3,N
1584541615.7,286047001.4,N
1584541635.5,286047003.5,N
1584541655.4,286047004.0,N
1584541675.2,286047002.3,N
1584541695.1,286047003.3,N
1584541696.0,286047003.3,N
1584541715.8,286047004.1,N
1584541735.6,286047005.8,Y
1584541755.5,286047003.6,P
1584541775.3,286047000.2,N
1584541795.2,286047002.7,N
1584541815.9,286047003.6,N
1584541835.7,286047003.1,N
1584541855.6,286047003.2,N
1584541875.4,286047003.3,N
1584541895.2,286047002.9,N
1584541915.1,286047005.7,Y
1584541916.0,286047005.7,P
1584541935.8,286047002.0,N
1584541955.7,286047001.1,N
1584541975.5,286047002.2,N
1584542025.4,286047000.4,E
1584542035.3,286047000.3,N
1584542055.1,286046999.8,P
1584542075.9,286047000.0,N
1584542095.7,286047000.9,Y
1584542115.6,286046998.3,P
1584542135.4,286047000.5,N
1584542155.2,286047000.1,N
1584542175.1,286047001.7,N
1584542176.0,286047001.7,N
1584542195.8,286047000.5,N
1584542215.7,286047002.6,N
1584542235.5,286047001.6,N
1584542255.3,286047002.2,N
1584542275.2,286047000.8,N
1584542295.0,286046998.1,N
1584542295.9,286046998.1,N
1584542315.8,286046999.1,N
1584542335.6,286046999.1,N
1584542355.4,286046996.7,N
1584542375.3,286046999.4,N
1584542395.1,286046997.4,N
1584542415.8,286046997.1,N
1584542435.7,286046999.4,N
1584542455.5,286046998.8,N
1584542475.4,286046996.7,N
1584542495.2,286046998.8,N
1584542515.0,286046999.9,N
1584542515.9,286046999.9,N
1584542535.8,286047000.0,N
1584542555.6,286047002.8,N
1584542575.5,286047000.6,N
1584542595.3,286047011.9,Y
1584542615.1,286047002.7,P
1584542635.9,286047001.7,N
1584542655.7,286047002.1,N
1584542675.5,286047001.8,N
1584542695.4,286047004.4,Y
1584542715.2,286047000.8,P
1584542735.1,286047000.0,N
1584542736.0,286047000.0,N
1584542755.8,286047002.4,Y
1584542775.6,286047000.6,P
1584542795.5,286047001.2,P
1584542815.3,286047000.7,N
1584542835.2,286046998.4,Y
1584542855.9,286046998.2,P
1584542875.7,286047002.8,N
1584542895.6,286046998.2,N
1584542915.4,286046999.2,N
1584542935.3,286046998.4,N
1584542955.1,286046999.2,N
1584542956.0,286046999.2,N
1584542975.8,286046997.0,N
1584542995.7,286046999.4,N
1584543015.5,286046999.4,N
1584543035.3,286046997.3,N
1584543055.2,286046998.5,N
1584543075.0,286046999.4,N
1584543075.9,286046999.4,N
1584543095.8,286046999.0,N
1584543115.6,286046999.0,N
1584543135.4,286046997.3,N
1584543155.3,286046999.4,N
1584543175.1,286046998.2,N
1584543195.9,286046998.4,N
1584543215.7,286046996.9,N
1584543235.5,286046998.3,N
1584543255.4,286046999.3,N
1584543275.2,286046999.5,N
1584543295.0,286046998.4,N
1584543295.9,286046998.4,N
1584543315.8,286047002.0,N
1584543335.6,286047001.6,N
1584543355.5,286047002.6,N
1584543375.3,286047001.3,N
1584543395.1,286047002.4,N
1584543415.9,286047001.2,N
1584543435.7,286046998.9,N
1584543455.6,286046996.7,N
1584543475.4,286046999.6,N
1584543495.2,286047000.5,N
1584543515.1,286047000.3,N
1584543516.0,286047000.3,N
1584543535.8,286047000.8,N
1584543555.6,286047000.6,N
1584543575.5,286047000.6,N
1584543595.3,286047000.0,N
